GEFSSGP_500_meanwind_138.txt.gz
Wind_Speed
12 12 11 9 9 8 9 9 9 10 10 10 11 11 11 10 9 8 6 6 6 6 5 5 5 5 5 6 6 6 6 6 6 6 6 6 6 6 6 6 6 6 6 6 6 6 5 5 5
13 12 11 10 10 10 9 9 9 10 11 11 12 11 11 10 9 8 7 7 7 7 7 6 6 6 6 6 6 6 5 5 5 5 5 5 5 5 6 6 5 5 5 5 5 5 5 5 5
13 12 11 11 11 11 10 9 9 10 12 12 13 11 11 11 11 9 7 7 8 8 9 8 7 7 7 6 6 5 4 4 4 4 4 4 4 4 4 5 5 5 4 5 5 4 4 4 4
13 13 12 12 12 11 11 10 11 12 12 13 13 13 12 13 12 11 8 8 8 9 9 9 8 8 8 7 6 5 4 3 3 2 2 2 2 3 4 4 4 4 4 4 4 4 4 3 3
13 13 13 13 13 12 11 11 12 12 13 13 13 14 14 14 13 11 9 9 9 9 10 10 9 9 8 8 7 6 4 4 2 1 1 1 2 2 3 4 4 4 4 4 4 4 4 3 2
14 14 13 13 14 12 12 12 12 13 13 14 14 15 14 15 14 12 10 10 10 10 11 11 10 9 9 8 8 6 5 4 3 2 1 1 1 2 3 3 4 4 4 4 4 4 3 3 1
15 15 14 13 13 14 14 13 14 15 14 14 14 14 14 14 14 13 12 11 11 10 11 12 11 11 11 10 9 8 7 5 4 3 2 2 2 3 3 4 4 4 4 4 4 3 3 2 1
16 15 15 14 13 14 14 14 14 15 15 15 14 14 14 14 14 13 12 11 11 12 13 13 13 13 12 12 10 9 8 7 5 4 3 3 3 4 4 4 4 4 5 4 4 3 3 2 2
16 15 15 14 14 14 14 15 15 15 16 15 14 15 15 15 14 13 12 12 11 12 12 12 13 15 14 13 12 10 9 8 7 5 5 5 5 5 5 5 5 5 4 4 4 3 3 3 3
16 15 15 15 15 15 15 15 15 15 16 16 16 16 16 16 14 13 13 13 12 12 13 13 14 15 15 15 14 12 11 9 8 7 6 6 6 6 7 6 6 6 5 5 5 4 4 4 4
16 15 16 15 16 15 15 16 16 16 16 17 16 17 17 15 14 14 12 11 11 12 13 15 15 15 15 16 16 14 12 11 10 9 8 7 7 7 7 7 6 6 6 5 5 5 5 5 5
16 16 16 15 16 16 15 15 16 16 16 17 17 16 16 15 15 12 10 9 10 11 13 15 15 15 16 17 16 16 14 12 11 11 9 8 8 7 6 7 6 6 6 6 5 5 5 6 6
16 16 15 15 15 16 15 15 15 15 15 16 16 14 14 15 14 11 11 10 10 10 12 14 15 15 15 16 16 15 15 14 13 11 10 10 9 8 8 7 7 7 7 6 6 6 5 5 5
16 15 14 14 15 15 14 14 15 13 15 16 15 14 14 14 13 12 11 10 11 10 13 16 16 16 16 17 17 15 15 15 14 13 12 10 10 8 7 6 7 7 7 6 6 6 6 5 5
15 14 14 15 15 14 15 14 13 13 14 16 15 14 15 15 13 13 12 11 11 12 13 16 18 18 17 17 17 16 17 15 15 14 13 11 10 9 7 6 6 6 6 5 4 4 4 4 5
16 15 15 16 16 15 15 13 14 14 15 16 16 16 15 14 13 13 12 11 11 12 14 16 17 19 18 17 18 18 18 17 17 16 14 13 11 9 8 7 7 6 5 4 3 3 3 4 4
17 17 16 16 17 16 16 14 14 16 17 17 16 16 15 13 13 12 11 10 12 12 12 13 16 18 19 18 18 19 18 18 18 17 15 14 12 10 8 8 7 5 5 4 4 3 3 3 3
18 17 16 16 16 17 16 15 14 15 16 16 16 15 14 13 11 10 9 9 11 12 13 13 16 19 18 18 18 18 18 18 18 17 15 13 11 10 9 8 8 6 5 4 4 3 3 2 2
18 17 15 16 17 17 17 15 14 15 15 15 14 14 13 12 12 10 10 10 11 12 13 14 17 18 18 18 17 17 18 18 16 15 14 13 12 11 10 9 8 6 5 5 4 3 3 2 1
19 18 16 16 18 18 17 15 14 15 15 14 13 13 13 13 11 10 10 9 8 9 11 13 15 18 19 18 17 17 17 17 16 16 15 13 12 12 11 10 9 8 6 5 4 4 3 2 1
19 18 18 18 18 19 18 15 15 15 15 14 14 14 13 12 10 10 9 8 9 9 10 12 15 17 19 19 18 17 17 17 17 16 15 14 13 12 12 11 10 9 7 6 5 4 3 2 2
20 19 19 19 18 18 18 15 14 15 15 15 15 14 13 12 10 9 8 7 9 10 10 12 14 16 18 18 17 17 17 17 17 16 15 15 14 12 12 12 10 9 8 6 6 5 4 3 2
19 20 20 20 19 19 18 16 13 14 15 14 14 13 12 11 10 8 7 6 7 8 10 12 13 15 17 18 18 18 18 18 17 16 16 16 15 13 13 12 11 10 8 7 6 5 4 3 2
20 21 21 21 20 19 17 17 13 15 15 14 13 12 12 11 9 8 7 7 7 8 10 12 13 15 16 18 18 18 19 18 17 17 17 16 15 14 14 13 12 10 9 8 6 5 4 3 3
20 21 21 20 20 17 16 16 13 14 14 13 12 11 11 10 9 8 7 7 7 8 9 10 13 15 16 18 18 18 18 18 18 18 18 17 16 15 15 14 13 11 10 9 7 5 4 4 4
21 21 22 21 19 16 16 15 13 13 13 12 11 10 9 9 9 8 8 7 7 8 9 10 12 14 16 17 18 18 18 18 18 19 18 17 17 16 16 14 13 12 11 9 8 7 6 6 6
22 22 22 22 20 19 17 15 13 14 13 12 11 10 9 8 8 7 7 8 8 8 9 11 13 14 16 17 17 18 18 18 18 18 18 17 17 17 16 14 13 12 11 10 9 8 8 8 8
22 22 23 23 22 21 18 15 14 13 11 11 11 10 10 8 8 7 7 8 9 9 10 11 14 14 15 16 16 17 18 18 17 17 17 18 18 17 16 15 13 12 11 11 10 10 9 10 10
22 23 24 24 24 23 19 14 13 13 12 11 11 11 10 9 8 8 8 9 9 10 10 11 14 15 16 16 16 17 17 17 17 17 17 18 17 17 16 15 14 13 13 12 12 11 11 12 12
24 25 25 26 26 24 21 15 14 13 12 12 11 11 10 9 9 10 10 10 10 11 11 12 14 15 16 16 16 17 17 17 17 17 17 17 17 16 16 15 15 14 14 14 14 14 14 14 14

GEFSSGP_500_meanwind_144.txt.gz
Wind_Speed
10 10 10 9 8 8 7 7 7 6 6 5 4 4 3 3 2 1 1 2 3 5 6 6 7 7 7 7 8 9 10 10 10 11 10 10 10 10 10 9 9 8 8 8 7 7 7 6 6
10 10 9 9 8 7 7 7 6 5 6 5 5 4 3 3 3 2 2 3 4 5 6 7 7 7 8 8 9 9 9 9 10 10 9 9 9 9 9 8 8 7 7 7 7 7 6 6 6
10 10 9 9 8 6 7 7 6 6 6 6 5 5 4 4 4 3 3 3 4 6 7 8 8 8 9 9 9 9 9 9 9 9 9 9 8 8 8 7 7 6 6 6 6 6 6 5 5
10 10 9 9 8 8 8 7 7 7 7 7 6 6 5 5 5 4 4 4 5 6 7 8 9 9 10 10 10 10 10 10 9 9 8 8 8 7 7 7 6 6 5 5 5 5 5 5 5
11 10 9 9 9 9 8 7 7 8 8 8 7 7 6 6 5 5 5 5 6 7 8 9 10 11 11 12 12 11 10 10 9 9 8 8 7 7 6 6 5 5 5 4 4 4 4 4 5
11 10 9 8 9 9 9 8 8 8 8 7 7 7 7 6 6 6 5 6 6 8 9 10 11 12 13 13 13 12 11 10 10 9 8 8 7 6 6 5 5 4 4 4 4 3 4 4 5
11 10 9 9 10 10 9 8 8 9 9 8 8 8 8 7 7 6 6 6 7 8 11 12 12 12 14 14 14 13 12 11 10 9 9 8 7 6 5 5 4 4 4 3 3 3 3 4 5
11 11 10 10 9 10 9 9 9 9 9 9 9 9 9 8 8 8 8 7 8 9 11 13 13 14 14 15 15 14 12 12 11 10 9 8 7 6 5 5 4 4 3 3 3 3 3 4 5
12 11 10 10 9 10 10 9 9 9 10 11 11 10 10 10 9 9 8 8 8 9 11 13 13 15 16 16 16 15 14 13 12 11 10 8 7 6 6 5 4 4 4 4 4 4 4 4 5
13 12 12 11 10 10 10 10 10 10 11 12 12 11 11 10 10 9 9 8 9 10 12 13 14 17 17 17 17 17 15 14 12 11 10 9 8 7 7 6 5 4 4 4 4 5 5 5 5
13 13 13 11 11 10 10 10 10 10 11 12 12 12 12 11 10 10 10 9 10 11 12 13 15 18 19 19 18 18 17 15 14 12 11 9 8 8 7 6 6 4 4 4 5 5 5 5 5
14 13 13 12 11 11 11 11 10 11 11 12 12 12 12 12 12 11 11 11 10 12 13 14 15 18 19 19 19 19 18 17 16 14 12 10 9 8 7 7 6 5 5 4 5 5 5 5 5
14 14 14 13 12 12 11 11 11 11 12 13 13 13 13 13 13 12 11 11 11 13 14 14 15 18 19 19 19 20 20 18 17 15 13 11 10 9 8 8 7 6 6 5 5 5 5 6 6
15 14 14 14 14 13 12 12 12 13 13 14 14 14 14 13 13 13 12 12 12 13 14 15 16 17 19 20 20 21 21 20 17 16 14 12 10 9 9 9 8 8 7 6 6 6 6 6 6
15 15 15 15 15 14 13 13 13 14 14 15 15 15 14 14 13 13 13 13 12 13 15 16 17 18 19 20 21 21 22 21 19 17 15 14 12 10 10 8 8 8 7 7 6 6 6 6 5
16 15 15 17 16 15 14 13 15 15 15 15 15 15 14 14 13 13 13 13 13 13 15 16 17 19 20 21 22 22 22 21 19 17 16 15 13 11 10 9 8 8 7 6 6 6 6 6 5
16 15 15 17 17 16 14 13 15 14 14 14 15 15 15 14 13 13 13 12 12 14 15 16 17 20 21 21 22 23 22 21 19 18 16 15 13 12 10 10 9 8 7 7 6 6 5 5 5
17 16 16 17 17 16 15 14 15 14 13 13 13 14 14 14 14 14 13 12 12 14 16 16 18 20 20 21 22 23 22 21 20 18 16 15 14 13 11 10 10 9 8 7 6 6 6 5 4
18 17 16 17 17 15 15 15 15 15 15 14 14 13 13 14 15 14 13 12 13 14 15 16 18 19 19 19 21 22 22 21 20 19 17 16 15 13 12 11 11 10 9 8 7 7 6 5 4
17 17 17 17 17 16 14 14 14 15 15 14 14 13 13 14 14 14 12 13 13 14 15 16 17 19 19 19 20 22 21 20 19 19 18 17 15 14 13 12 12 11 10 8 8 7 6 5 4
17 17 17 17 16 15 14 12 14 15 15 14 13 13 13 14 14 13 11 11 12 12 14 15 16 18 19 20 20 22 21 19 19 18 18 17 16 15 14 13 13 12 10 9 9 8 7 6 5
17 17 17 16 15 15 14 12 15 15 15 13 13 13 13 13 12 11 10 11 11 12 12 15 16 17 18 19 19 20 20 20 20 18 18 17 17 16 15 14 13 12 11 10 9 8 8 7 5
18 17 16 15 15 14 14 13 13 15 14 13 13 13 12 12 11 10 9 9 10 11 11 12 15 16 18 19 19 19 20 20 21 20 19 18 17 17 16 15 14 13 12 11 10 9 8 7 6
18 16 15 15 14 13 14 13 11 13 13 13 13 12 12 11 10 9 9 8 8 9 10 11 13 16 17 18 18 19 19 20 21 20 20 19 18 17 16 16 15 14 13 12 11 10 9 8 6
17 15 13 13 13 13 15 13 11 12 12 12 12 11 11 10 9 9 9 8 8 9 10 11 12 15 17 18 18 19 19 20 20 20 20 19 18 18 17 16 15 14 14 13 12 11 9 8 7
17 16 14 13 12 13 15 12 11 12 12 11 11 10 10 9 8 8 8 8 8 9 9 10 12 15 15 17 18 19 19 20 20 20 20 20 19 18 18 17 16 15 15 14 13 12 10 8 7
18 17 16 16 14 13 13 13 12 12 12 11 11 11 10 9 8 8 8 9 8 8 8 9 11 14 15 16 18 19 19 20 20 20 21 20 20 19 18 18 17 16 15 14 13 12 11 9 8
19 18 18 17 15 13 13 13 12 13 12 11 11 11 11 10 9 9 9 9 8 8 8 8 9 11 14 15 17 19 19 19 20 19 19 19 20 19 18 18 17 16 15 15 14 13 12 11 10
19 19 19 18 17 15 13 13 15 13 12 12 12 12 11 10 9 9 10 10 9 8 8 8 8 11 13 15 16 18 18 19 19 19 19 19 19 19 18 18 18 17 16 15 15 14 13 12 11
19 19 19 19 18 18 16 15 17 14 14 14 13 13 12 11 10 10 10 10 10 9 9 9 9 11 12 14 16 17 18 18 19 19 19 19 18 19 18 18 18 17 17 16 15 14 14 14 14

GEFSSGP_500_meanwind_150.txt.gz
Wind_Speed
9 8 8 7 8 9 9 6 6 7 7 6 6 6 7 8 7 6 7 5 5 5 5 6 7 6 6 6 6 6 6 6 6 7 7 6 7 7 7 7 7 7 7 7 7 6 6 5 5
8 8 6 6 8 9 6 6 9 8 8 8 7 8 9 9 8 8 7 6 5 6 6 7 7 7 7 6 6 7 7 6 6 6 6 5 5 6 6 7 6 6 5 5 5 5 5 5 5
8 7 6 6 7 7 5 8 10 10 9 8 8 8 9 9 9 8 8 7 6 7 7 8 8 8 8 7 7 7 7 7 6 6 5 5 5 5 5 5 5 4 4 4 4 4 4 5 5
7 6 5 4 4 2 7 10 11 11 10 9 9 9 10 10 9 8 8 8 8 8 9 9 9 9 9 8 8 8 8 7 7 6 6 5 5 4 4 4 4 4 3 3 4 4 4 4 4
6 6 5 5 4 4 9 12 11 10 10 10 10 10 11 10 10 9 9 8 8 9 10 9 10 10 10 10 10 9 9 8 8 7 6 6 5 4 4 3 3 3 3 3 3 3 4 4 4
6 4 4 5 4 7 12 12 10 9 10 11 11 11 10 11 11 10 10 9 8 8 10 10 10 10 11 11 11 10 10 9 9 8 7 7 6 5 4 3 3 3 3 3 2 3 3 3 3
7 4 3 5 6 8 13 13 11 10 11 11 11 12 10 11 11 11 11 10 8 9 9 11 11 11 11 12 12 11 11 10 10 9 8 7 7 6 4 4 3 3 3 2 2 3 3 3 3
7 4 2 3 8 10 14 17 12 10 12 10 11 13 11 11 11 11 11 11 9 9 10 10 11 12 12 12 13 13 12 12 11 10 10 8 7 6 5 5 4 4 3 3 3 3 3 3 3
6 5 3 3 7 11 14 17 13 11 12 11 12 13 12 12 11 12 12 11 10 9 10 11 12 12 13 13 14 13 13 12 12 11 10 10 8 7 6 6 5 4 4 4 3 3 3 3 3
7 6 4 4 6 10 12 14 12 12 13 14 13 12 12 13 12 12 12 12 11 11 11 12 13 13 13 14 15 14 14 13 13 12 12 11 10 8 7 7 6 5 5 4 4 4 4 4 4
8 8 7 8 11 13 13 13 11 12 14 15 16 13 13 13 13 13 13 13 12 12 12 13 14 14 14 15 16 15 15 15 14 14 13 12 11 9 8 8 7 6 6 5 5 5 5 5 5
11 10 12 12 14 15 14 13 11 13 15 15 16 14 14 14 14 15 14 13 12 12 13 14 15 15 15 16 17 17 17 16 15 14 14 13 12 10 9 9 9 8 7 6 6 6 6 6 5
13 13 13 14 15 15 14 13 14 14 16 17 16 16 16 15 15 15 15 13 13 13 13 13 15 16 16 16 16 17 18 17 16 15 15 14 12 11 10 10 9 9 8 7 6 6 6 6 6
14 16 15 14 15 15 14 14 14 14 15 17 16 17 17 16 16 15 15 14 14 14 13 13 14 15 15 17 17 17 18 18 17 16 15 14 13 11 10 10 10 9 8 7 7 7 6 6 5
15 15 15 14 15 14 14 14 15 14 14 16 17 17 17 16 16 15 15 15 14 14 14 14 15 16 15 16 17 18 18 18 18 17 16 14 14 13 11 10 10 10 9 8 7 7 7 6 5
14 14 13 12 13 14 14 14 14 15 13 15 16 17 17 17 16 16 16 15 15 15 15 15 15 16 17 16 17 17 17 17 18 18 17 16 14 14 12 10 10 9 9 8 7 7 7 6 5
12 11 11 11 12 14 15 15 13 15 14 15 16 17 18 17 17 16 16 15 16 15 15 16 16 16 17 17 17 18 17 17 17 18 18 16 15 14 13 11 10 9 9 8 7 7 6 6 5
11 10 12 13 12 15 15 16 15 15 15 16 17 18 17 17 16 16 15 16 16 15 15 15 16 17 17 17 17 18 17 17 17 17 18 17 15 14 13 12 11 10 9 8 7 7 6 5 5
14 13 14 13 14 16 17 16 15 15 16 17 18 18 17 17 16 15 16 16 15 14 13 14 15 16 17 16 17 17 17 17 17 17 17 17 16 14 14 13 12 11 10 9 8 7 6 5 5
17 17 16 14 15 17 17 15 14 16 18 18 18 18 17 17 17 15 16 15 14 14 13 13 14 15 16 16 17 18 17 16 15 17 17 17 16 15 14 14 13 12 11 10 9 8 7 6 5
19 18 16 14 16 16 16 15 15 15 16 17 17 17 17 18 16 15 15 14 13 13 12 14 15 15 15 15 16 18 17 16 15 16 17 17 17 17 16 15 14 13 12 11 10 9 7 6 5
19 16 17 17 17 15 14 15 15 16 18 17 16 16 16 17 17 16 14 14 13 12 12 13 13 14 14 14 15 17 17 17 17 16 17 18 17 16 16 15 15 13 12 11 10 9 8 7 5
18 16 18 19 18 15 14 15 15 16 17 17 15 16 16 16 16 15 14 13 12 10 10 11 12 12 13 14 15 17 17 17 17 16 17 18 18 16 16 15 15 13 12 11 10 9 8 7 6
18 17 17 15 15 15 16 16 14 16 16 15 15 16 16 16 15 15 13 11 10 10 9 10 11 12 12 13 14 16 17 17 17 16 17 18 18 18 17 16 15 14 13 12 11 10 9 8 7
19 17 15 14 14 14 14 15 14 17 17 19 17 17 16 15 14 13 11 9 8 8 8 8 10 10 11 12 14 16 17 17 17 17 18 19 19 18 17 17 16 15 14 13 12 11 10 9 8
18 17 16 15 14 14 13 13 13 16 17 19 18 16 15 14 13 12 11 9 9 9 8 9 9 9 10 11 14 15 17 17 17 17 17 18 19 19 19 18 17 16 14 14 13 12 11 10 9
18 18 16 15 15 15 13 11 13 15 17 18 18 16 14 13 13 11 11 10 9 9 9 9 9 9 10 11 12 14 16 16 17 17 18 18 18 19 19 18 17 16 15 15 14 13 12 11 11
19 17 17 18 18 16 14 13 15 16 15 16 17 16 14 13 13 11 10 11 10 9 9 9 10 10 11 12 13 13 14 16 17 18 18 18 18 18 19 19 18 18 17 16 15 14 13 12 12
19 19 19 19 19 16 16 16 15 16 15 15 18 18 16 14 13 12 11 11 11 10 9 9 9 10 10 11 12 13 14 15 16 17 18 17 17 18 19 19 19 18 17 16 16 15 14 13 13
19 20 20 21 21 20 18 17 16 17 16 15 17 18 16 13 14 13 11 11 11 10 9 9 9 9 9 10 11 12 13 13 15 16 17 17 17 17 18 19 19 18 17 17 16 15 15 14 14

GEFSSGP_500_meanwind_156.txt.gz
Wind_Speed
6 5 4 4 4 4 6 7 8 9 9 10 11 11 10 9 8 5 4 3 1 1 1 2 2 3 3 3 3 2 2 2 2 2 2 2 3 3 4 4 5 5 5 5 4 5 5 5 5
5 5 4 3 3 3 5 7 9 11 11 11 10 10 10 8 7 6 5 3 1 1 2 3 3 3 3 3 3 2 2 2 2 1 1 2 2 3 3 3 3 3 3 3 4 4 4 5 5
5 4 4 3 2 4 5 6 9 12 13 12 12 11 9 7 6 5 5 3 2 1 2 4 4 4 4 4 3 3 2 2 1 1 0 1 1 2 2 2 2 2 2 2 3 3 3 4 4
5 5 4 4 4 3 4 5 7 11 13 12 12 12 9 8 6 6 5 4 2 1 2 4 5 5 5 5 4 3 3 2 2 2 1 1 1 1 1 1 0 1 1 1 2 2 2 2 3
6 5 5 5 6 4 4 4 7 12 14 14 14 12 9 8 7 6 5 4 2 1 2 4 5 6 6 6 6 5 4 3 3 3 2 2 1 1 1 1 1 0 0 1 1 1 1 1 2
6 6 6 7 8 6 4 5 8 12 15 15 14 12 10 8 7 6 5 4 3 2 2 5 6 6 7 7 7 6 5 4 4 4 3 3 2 2 1 1 1 1 1 1 0 1 1 1 2
7 7 7 7 7 5 5 6 9 14 16 15 14 12 12 8 6 6 5 4 3 3 3 5 6 7 8 8 8 7 6 6 5 4 4 4 3 2 2 2 1 1 1 1 0 0 1 2 2
8 8 9 9 7 6 5 6 8 12 15 15 14 13 11 9 6 5 5 4 4 4 4 5 6 7 8 8 8 8 7 6 6 5 4 4 4 3 2 2 2 2 2 1 1 0 1 2 2
9 9 10 9 7 7 6 7 8 11 13 14 13 13 12 9 7 6 6 5 4 5 5 6 7 7 8 9 9 9 8 7 7 6 5 5 4 4 3 3 2 2 2 2 1 1 1 2 2
10 10 10 9 8 7 8 8 11 12 15 13 13 13 12 10 8 7 7 7 6 6 6 7 8 8 9 10 10 9 9 8 8 7 6 6 5 5 4 4 3 3 3 2 2 2 2 2 2
12 12 12 11 10 8 8 10 13 14 16 15 14 14 13 10 8 8 7 7 7 7 7 8 9 10 10 10 11 10 10 9 9 9 7 7 7 6 5 5 5 4 4 3 3 3 2 2 2
14 14 14 13 12 11 10 12 15 16 16 16 13 14 14 11 10 8 8 8 7 7 6 7 9 9 10 11 11 11 11 11 11 10 9 7 7 7 7 7 6 5 5 4 3 3 3 3 3
16 17 17 15 13 13 13 14 16 16 16 15 14 14 13 12 11 9 8 8 8 7 8 8 9 10 11 12 11 11 11 12 12 12 10 9 8 8 8 8 7 6 5 5 4 4 4 4 3
18 18 18 15 15 15 15 15 17 18 17 15 15 14 12 12 12 10 9 8 8 8 9 9 9 11 12 12 12 12 12 12 12 12 12 11 10 10 9 8 8 7 6 6 5 5 5 5 4
19 18 17 15 15 15 15 14 15 16 16 15 16 14 12 12 12 11 10 10 9 9 10 10 10 11 13 13 13 12 12 12 12 13 13 12 11 11 10 9 9 8 7 7 7 6 6 6 5
19 18 16 14 14 14 15 13 14 15 15 15 15 14 13 13 12 12 11 11 9 9 10 10 10 11 12 13 14 13 13 13 13 12 13 13 12 11 10 10 9 9 8 8 7 7 7 6 6
18 17 15 13 13 13 14 13 12 14 15 15 14 14 14 13 12 12 12 12 10 10 10 11 10 11 12 12 13 14 14 15 14 13 13 13 13 12 11 10 9 9 9 9 8 8 8 7 6
18 18 17 14 13 13 13 13 12 13 15 16 15 15 14 13 12 12 12 12 11 11 12 11 11 12 13 13 13 14 15 15 15 13 13 14 13 13 12 11 10 9 9 9 8 8 8 7 6
20 20 17 14 14 13 13 12 13 14 15 16 16 16 15 13 12 12 12 12 11 11 11 12 12 13 13 14 14 15 15 16 15 14 14 14 14 13 13 12 11 10 10 10 9 9 8 7 6
22 20 17 14 13 13 14 14 15 15 16 17 17 16 15 15 14 13 13 12 12 12 12 13 13 13 14 14 15 16 16 16 15 15 14 15 15 15 14 14 13 12 11 11 10 9 9 8 7
22 19 16 15 14 15 16 17 17 17 17 16 15 15 15 16 15 14 14 12 12 12 13 13 13 13 14 14 15 15 16 16 15 14 14 15 16 15 14 14 14 13 12 12 11 10 10 9 8
21 18 17 17 17 17 17 18 18 17 16 15 14 13 13 14 15 14 13 12 13 13 13 12 13 13 14 15 13 14 15 16 15 15 16 15 15 15 15 14 14 13 13 12 12 12 11 10 8
21 19 19 20 20 20 20 20 17 18 19 17 16 13 11 12 14 14 13 13 13 12 11 11 11 11 12 13 13 14 16 16 16 16 17 16 16 15 16 15 15 14 14 13 13 13 12 11 10
20 20 21 23 24 22 21 21 19 19 19 18 15 12 11 11 11 12 12 12 12 11 10 10 10 10 11 12 12 13 15 16 16 16 16 17 16 16 15 15 15 16 15 15 14 13 13 13 12
22 22 23 24 24 22 20 21 19 19 19 17 14 12 11 11 11 11 11 11 10 10 9 9 10 9 10 11 12 13 14 15 15 17 17 17 17 17 17 16 17 16 16 15 15 14 14 13 13
23 23 23 22 22 20 20 21 20 20 18 16 14 12 11 11 11 11 11 10 9 9 8 9 9 9 9 10 12 13 14 15 15 16 18 18 18 18 18 18 17 17 17 16 16 15 14 14 15
22 23 22 21 20 19 18 18 18 18 17 16 15 13 10 9 9 10 10 9 9 9 9 9 9 9 9 10 11 13 14 15 16 18 18 18 18 19 19 19 18 18 18 17 17 16 15 15 15
20 20 21 22 21 20 17 15 14 15 15 15 16 13 9 10 9 8 8 7 8 9 9 9 10 10 9 9 10 11 13 14 16 17 17 18 18 19 20 20 19 19 18 18 18 17 16 16 16
21 22 22 22 22 21 18 16 14 15 15 15 14 12 11 10 9 8 8 8 8 9 9 9 9 10 10 10 10 11 13 15 15 16 17 19 19 19 19 19 19 19 19 19 19 18 17 17 17
22 22 23 24 23 21 21 18 16 16 15 15 13 12 12 10 8 8 9 9 9 10 9 10 10 10 11 11 11 12 13 14 16 16 16 17 18 18 19 20 19 19 19 19 20 20 19 18 17

GEFSSGP_500_meanwind_162.txt.gz
Wind_Speed
7 7 7 7 7 8 9 10 11 11 11 12 11 11 10 9 8 6 5 3 2 2 2 2 3 4 6 7 8 9 9 9 8 8 8 8 8 7 7 7 6 6 5 5 5 5 5 5 6
6 6 6 6 7 8 8 9 11 10 10 10 11 12 11 10 8 6 4 3 2 1 1 2 3 4 5 6 7 8 8 8 7 7 8 7 7 8 7 6 6 5 5 5 5 5 5 5 6
6 6 6 7 7 7 7 8 10 10 9 10 11 11 10 10 8 6 4 3 2 2 1 2 3 4 5 6 6 7 7 6 6 6 7 7 6 7 7 6 6 5 5 5 5 5 5 5 5
6 6 6 7 7 7 6 6 7 8 9 10 10 9 9 9 8 6 4 2 1 1 2 2 3 3 4 5 5 6 6 6 6 6 6 6 6 6 6 6 6 5 5 5 5 5 4 4 5
7 7 7 7 7 7 6 7 6 6 8 9 9 9 9 9 8 7 5 2 0 1 2 2 3 3 3 4 5 5 5 5 6 6 6 6 5 4 5 5 6 5 5 4 4 4 4 4 4
8 8 8 8 8 7 7 6 5 5 7 9 9 10 9 9 8 7 5 2 1 1 2 2 3 3 3 3 4 4 4 4 5 5 5 5 4 3 4 5 4 4 4 4 3 3 3 3 3
9 9 9 9 9 8 7 6 6 6 7 9 9 10 10 9 9 7 5 3 1 2 2 3 3 4 4 3 4 4 4 3 3 4 4 4 3 3 3 4 3 3 3 3 3 2 2 2 3
10 10 11 10 10 10 8 6 5 6 6 7 8 9 10 9 9 8 5 4 2 2 2 3 4 4 4 4 4 4 4 4 3 3 3 3 3 3 2 3 3 3 2 2 2 2 2 2 2
11 11 12 12 11 11 9 8 6 6 5 6 7 8 8 9 9 8 6 4 3 3 2 2 4 4 5 5 5 4 4 4 4 3 3 3 3 2 2 2 2 2 2 1 1 1 2 2 2
12 12 13 13 13 12 11 10 7 7 6 6 7 7 8 10 10 8 6 5 4 4 3 3 4 4 5 6 6 5 5 5 4 4 4 4 3 3 2 2 1 1 1 1 1 1 2 1 2
13 14 14 14 14 12 11 10 9 8 8 7 7 7 9 9 10 9 7 6 5 4 4 4 5 5 5 5 7 7 6 6 5 5 4 4 4 4 3 2 1 1 0 1 1 2 2 2 1
15 15 16 16 15 13 12 11 10 9 9 8 7 8 9 10 10 10 8 7 6 5 4 5 5 5 6 6 7 8 7 7 6 6 6 5 5 5 4 3 2 2 1 1 2 2 2 2 2
17 17 17 17 16 15 14 13 12 11 10 9 8 8 9 10 10 10 9 8 7 6 6 6 6 6 6 7 8 8 8 8 8 8 8 7 7 6 5 5 4 3 3 3 2 3 3 3 2
19 19 18 17 17 17 16 15 13 12 11 10 9 8 9 10 10 10 10 9 8 7 7 7 7 8 8 8 8 9 9 9 8 8 9 9 9 8 6 5 5 5 4 4 4 4 4 3 3
21 20 19 19 19 19 18 16 13 13 12 9 8 8 9 9 9 10 11 10 9 8 8 7 8 8 9 9 9 9 10 10 10 10 9 10 10 9 8 7 6 6 5 5 5 4 4 4 4
22 21 20 20 20 19 18 15 15 14 12 11 10 9 10 10 10 11 11 11 10 10 9 9 9 9 10 10 10 11 10 11 11 12 11 11 11 11 10 9 8 7 7 7 6 5 5 5 4
23 22 20 21 21 20 19 17 16 15 13 11 11 11 11 11 11 12 12 12 11 11 10 10 10 10 11 11 11 12 12 12 12 12 12 12 12 11 11 11 10 8 8 8 8 7 7 6 5
23 22 21 22 22 21 20 18 17 16 15 13 12 11 11 11 10 10 11 12 12 11 12 11 12 11 11 13 13 13 14 13 13 13 13 13 12 12 12 12 10 10 9 9 9 8 8 7 6
24 23 22 22 23 22 21 19 18 17 16 14 13 12 12 11 10 10 11 12 12 12 12 12 12 12 12 12 13 14 15 15 15 14 14 14 14 13 13 13 11 10 9 9 9 9 9 8 7
24 23 22 22 24 23 22 20 18 17 16 15 14 13 12 12 12 11 10 11 12 13 13 13 14 14 14 14 14 15 16 17 17 16 15 15 15 14 14 14 12 11 11 10 10 10 10 10 9
24 23 23 24 25 24 23 21 19 17 17 16 15 14 13 13 13 11 11 13 13 13 14 14 14 15 15 16 16 16 17 18 17 16 16 17 15 15 15 15 14 13 12 11 11 12 12 11 10
24 24 24 25 26 25 23 21 19 17 17 17 15 14 13 14 14 12 12 14 14 14 15 15 15 16 16 17 16 17 17 19 19 17 17 17 17 15 15 15 15 14 14 14 13 13 13 12 11
25 26 27 27 27 26 24 23 19 17 17 16 16 14 13 13 14 13 13 14 15 14 15 16 17 17 16 16 16 16 18 19 20 19 18 17 17 17 16 16 17 16 16 15 15 15 14 13 13
28 29 29 29 28 27 24 23 19 17 16 15 15 13 13 13 13 13 12 13 14 14 15 16 17 16 16 16 15 16 17 19 19 19 18 18 18 18 18 18 18 18 18 17 17 16 16 15 14
30 30 30 29 28 26 23 23 20 17 16 16 15 14 14 14 14 14 14 14 14 14 15 16 15 14 14 16 16 16 17 18 18 18 19 19 19 18 19 19 19 19 19 18 18 18 17 16 16
30 30 30 28 27 24 23 23 20 17 17 16 16 15 15 15 14 15 15 15 13 13 14 15 14 13 14 14 13 14 16 18 18 18 18 19 19 20 20 20 20 19 20 20 19 19 18 17 16
30 30 28 28 25 23 22 21 19 17 17 17 15 15 15 14 14 15 15 14 13 13 13 13 13 13 12 13 13 13 14 16 18 18 19 19 20 21 21 21 21 20 21 21 20 19 19 18 18
30 29 29 27 25 23 21 19 17 16 15 14 15 14 14 15 15 14 14 13 13 14 13 13 11 12 12 12 12 13 14 15 17 18 20 20 20 21 21 21 22 21 21 21 21 20 20 19 18
30 30 29 27 25 23 21 18 16 16 14 14 14 14 14 14 14 14 14 14 14 13 11 10 10 10 11 11 12 13 14 15 16 18 19 20 20 20 20 21 22 22 22 21 21 21 21 20 19
30 29 27 26 24 22 21 18 17 16 15 14 14 14 14 13 12 13 14 14 13 12 11 10 10 11 11 12 12 13 14 15 16 17 19 20 21 21 21 20 22 23 23 22 22 23 22 21 20